Regional Weather Roundup
Issued by NWS Melbourne, FL

Current Version | Previous Version | Text Only | Print | Product List | Glossary On
Versions: 1 2 3 4 5 6 7 8 9 10 11 12 13 14 15 16 17 18 19 20 21 22 23 24 25 26 27 28 29 30 31 32 33 34 35 36 37 38 39 40 41 42 43 44 45 46 47 48 49 50
000
ASUS42 KMLB 140612
RWRMLB
HOURLY WEATHER ROUNDUP AROUND FLORIDA
NATIONAL WEATHER SERVICE OFFICE MELBOURNE FL
200 AM EDT WED APR 14 2021

CITY           SKY/WX    TMP DP  RH WIND       PRES   REMARKS
MELBOURNE      PTCLDY    73  64  73 E9        30.10S
FORT PIERCE    PTCLDY    72  64  76 E7        30.09S
ORLANDO INTL   MOCLDY    67  65  93 CALM      30.12R
DAYTONA BEACH  PTCLDY    64  62  93 CALM      30.10S
VERO BEACH     PTCLDY    71  66  84 E7        30.10S
$$
...ELSEWHERE ACROSS CENTRAL FLORIDA...

CITY           SKY/WX    TMP DP  RH WIND       PRES   REMARKS
PATRICK AFB    PTCLDY    72  62  71 E7        30.09S
KSC            PTCLDY    62  60  92 CALM      30.09S
CAPE CANAVERAL PTCLDY    68  63  85 E6        30.10R
SEBASTIAN      FAIR      72  66  80 E10       30.10S
ORLANDO EXEC   PTCLDY    69  66  90 CALM      30.11R
LEESBURG       MOCLDY    67  64  90 CALM      30.13R
SANFORD        PTCLDY    67  64  90 S3        30.11S
DELAND         PTCLDY    63  62  94 CALM      30.12S
WINTER HAVEN   MOCLDY    69  65  86 NE5       30.12F
KISSIMMEE      MOCLDY    70  68  93 NE3       30.12S
OKEECHOBEE       N/A    N/A N/A N/A CALM      30.09S
TAMPA          MOCLDY    74  61  63 E5        30.10F
$$
...NORTHERN FLORIDA...

CITY           SKY/WX    TMP DP  RH WIND       PRES   REMARKS
PALM COAST     PTCLDY    62  61  96 CALM      30.11S
ST AUGUSTINE   PTCLDY    65  62  90 CALM      30.13R
OCALA          MOCLDY    65  63  93 E5        30.12F
GAINESVILLE    MOCLDY    60  58  92 CALM      30.13F
JACKSONVILLE   PTCLDY    59  58  96 CALM      30.10F
TALLAHASSEE    CLOUDY    65  55  70 CALM      30.08F
$$
...ALONG THE SOUTHEAST COAST TO THE KEYS...

CITY           SKY/WX    TMP DP  RH WIND       PRES   REMARKS
STUART         PTCLDY    72  64  78 E7        30.10S
WEST PALM BCH  CLEAR     75  65  70 NE9       30.08F
MIAMI          CLEAR     74  67  78 NE5       30.07S
KEY WEST       CLEAR     77  62  59 E9        30.06S
$$
...MARINE REPORTS...

STATION/POSITION TIME  TEMP    WIND        PRES    WAVE   SWELL
                       AIR SEA DIR/SP/G            HT/PER HT/PER
                 (UTC) (F)     (DEG/KT/KT) (MB)    (FT/S) (FT/S)
ST AUGUSTINE FP  0600   68 67  120/  2/  3 1019.8R
20NM E CAPE CANA 0550   74 75              1018.7F   3/ 6   2/ 6
120 E NEW SMYRNA 0550   72      50/ 14/ 17 1019.4F   6/ 8   5/ 8
TRIDENT PIER     0524   71 73   60/  5/  8 1020.3
4NM E PORT CANAV 0556      73                N/A     2/ 6
6NM NE FPR INLET 0556      75                N/A     3/11   2/11
SETTLEMENT PT GB 0600   73      50/ 13/ 14 1018.6F
$$



USA.gov is the U.S. government's official web portal to all federal, state and local government web resources and services.